TimeCDT,TemperatureF,Dew PointF,Humidity,Sea Level PressureIn,VisibilityMPH,Wind Direction,Wind SpeedMPH,Gust SpeedMPH,PrecipitationIn,Events,Conditions,WindDirDegrees,DateUTC
12:13 AM,39.2,26.6,61,30.25,10.0,Calm,Calm,-,N/A,,Clear,0,2013-10-13 05:13:00
12:32 AM,39.2,26.6,61,30.25,10.0,Calm,Calm,-,N/A,,Clear,0,2013-10-13 05:32:00
12:53 AM,35.6,28.4,75,30.26,10.0,Calm,Calm,-,N/A,,Clear,0,2013-10-13 05:53:00
1:13 AM,37.4,28.4,70,30.26,10.0,Calm,Calm,-,N/A,,Clear,0,2013-10-13 06:13:00
1:33 AM,33.8,26.6,75,30.27,10.0,Calm,Calm,-,N/A,,Clear,0,2013-10-13 06:33:00
1:53 AM,30.2,26.6,86,30.28,10.0,Calm,Calm,-,N/A,,Clear,0,2013-10-13 06:53:00
2:13 AM,30.2,26.6,86,30.30,10.0,WSW,3.5,-,N/A,,Clear,240,2013-10-13 07:13:00
2:33 AM,32.0,26.6,80,30.30,10.0,Calm,Calm,-,N/A,,Clear,0,2013-10-13 07:33:00
2:53 AM,30.2,26.6,86,30.31,10.0,WSW,3.5,-,N/A,,Clear,240,2013-10-13 07:53:00
3:13 AM,32.0,26.6,80,30.31,10.0,Calm,Calm,-,N/A,,Clear,0,2013-10-13 08:13:00
3:33 AM,33.8,28.4,81,30.31,10.0,Calm,Calm,-,N/A,,Clear,0,2013-10-13 08:33:00
3:53 AM,35.6,28.4,75,30.30,10.0,Calm,Calm,-,N/A,,Clear,0,2013-10-13 08:53:00
4:13 AM,33.8,26.6,75,30.31,10.0,Calm,Calm,-,N/A,,Clear,0,2013-10-13 09:13:00
4:33 AM,33.8,26.6,75,30.32,10.0,Calm,Calm,-,N/A,,Clear,0,2013-10-13 09:33:00
4:53 AM,32.0,26.6,80,30.32,10.0,Calm,Calm,-,N/A,,Clear,0,2013-10-13 09:53:00
5:13 AM,32.0,26.6,80,30.33,10.0,Calm,Calm,-,N/A,,Clear,0,2013-10-13 10:13:00
5:33 AM,30.2,26.6,86,30.33,10.0,Calm,Calm,-,N/A,,Clear,0,2013-10-13 10:33:00
5:53 AM,30.2,26.6,86,30.33,10.0,Calm,Calm,-,N/A,,Clear,0,2013-10-13 10:53:00
6:13 AM,30.2,26.6,86,30.34,10.0,Calm,Calm,-,N/A,,Clear,0,2013-10-13 11:13:00
6:33 AM,30.2,26.6,86,30.34,10.0,Calm,Calm,-,N/A,,Clear,0,2013-10-13 11:33:00
6:53 AM,30.2,26.6,86,30.35,10.0,Calm,Calm,-,N/A,,Clear,0,2013-10-13 11:53:00
7:13 AM,32.0,26.6,80,30.36,10.0,Calm,Calm,-,N/A,,Clear,0,2013-10-13 12:13:00
7:33 AM,30.2,26.6,86,30.37,10.0,Calm,Calm,-,N/A,,Clear,0,2013-10-13 12:33:00
7:53 AM,32.0,26.6,80,30.37,10.0,Calm,Calm,-,N/A,,Clear,0,2013-10-13 12:53:00
8:13 AM,33.8,26.6,75,30.37,10.0,Calm,Calm,-,N/A,,Clear,0,2013-10-13 13:13:00
8:33 AM,35.6,28.4,75,30.38,10.0,Calm,Calm,-,N/A,,Clear,0,2013-10-13 13:33:00
8:53 AM,39.2,30.2,70,30.38,10.0,Calm,Calm,-,N/A,,Clear,0,2013-10-13 13:53:00
9:13 AM,41.0,33.8,76,30.39,10.0,Calm,Calm,-,N/A,,Clear,0,2013-10-13 14:13:00
9:33 AM,46.4,35.6,66,30.39,10.0,Calm,Calm,-,N/A,,Clear,0,2013-10-13 14:33:00
9:53 AM,50.0,32.0,50,30.39,10.0,Calm,Calm,-,N/A,,Clear,0,2013-10-13 14:53:00
10:13 AM,51.8,30.2,44,30.40,10.0,South,3.5,-,N/A,,Clear,170,2013-10-13 15:13:00
10:33 AM,53.6,30.2,41,30.41,10.0,SSE,5.8,-,N/A,,Clear,160,2013-10-13 15:33:00
10:53 AM,53.6,28.4,38,30.41,10.0,South,5.8,-,N/A,,Clear,170,2013-10-13 15:53:00
11:13 AM,55.4,26.6,33,30.41,10.0,SSE,5.8,-,N/A,,Clear,150,2013-10-13 16:13:00
11:34 AM,55.4,28.4,36,30.40,10.0,South,6.9,-,N/A,,Clear,190,2013-10-13 16:34:00
11:53 AM,57.2,26.6,31,30.40,10.0,SSE,4.6,-,N/A,,Clear,160,2013-10-13 16:53:00
12:13 PM,57.2,26.6,31,30.40,10.0,SE,3.5,-,N/A,,Clear,130,2013-10-13 17:13:00
12:33 PM,57.2,26.6,31,30.40,10.0,ESE,5.8,-,N/A,,Clear,120,2013-10-13 17:33:00
12:53 PM,57.2,26.6,31,30.39,10.0,South,4.6,-,N/A,,Clear,170,2013-10-13 17:53:00
1:13 PM,59.0,26.6,29,30.38,10.0,SE,4.6,-,N/A,,Clear,140,2013-10-13 18:13:00
1:33 PM,59.0,26.6,29,30.37,10.0,SSW,4.6,-,N/A,,Clear,210,2013-10-13 18:33:00
1:53 PM,60.8,26.6,27,30.36,10.0,Calm,Calm,-,N/A,,Clear,0,2013-10-13 18:53:00
2:13 PM,60.8,26.6,27,30.35,10.0,SSE,5.8,-,N/A,,Clear,150,2013-10-13 19:13:00
2:32 PM,60.8,26.6,27,30.35,10.0,SE,3.5,-,N/A,,Mostly Cloudy,140,2013-10-13 19:32:00
2:53 PM,60.8,26.6,27,30.34,10.0,SSE,4.6,-,N/A,,Mostly Cloudy,150,2013-10-13 19:53:00
3:13 PM,60.8,26.6,27,30.34,10.0,SSW,8.1,-,N/A,,Scattered Clouds,200,2013-10-13 20:13:00
3:33 PM,62.6,26.6,26,30.34,10.0,SE,5.8,-,N/A,,Clear,130,2013-10-13 20:33:00
3:53 PM,62.6,26.6,26,30.34,10.0,SSE,4.6,-,N/A,,Scattered Clouds,150,2013-10-13 20:53:00
4:13 PM,62.6,26.6,26,30.33,10.0,SSE,8.1,-,N/A,,Clear,160,2013-10-13 21:13:00
4:33 PM,62.6,26.6,26,30.32,10.0,South,8.1,-,N/A,,Clear,180,2013-10-13 21:33:00
4:53 PM,62.6,26.6,26,30.32,10.0,South,8.1,-,N/A,,Clear,180,2013-10-13 21:53:00
5:13 PM,62.6,26.6,26,30.32,10.0,South,8.1,-,N/A,,Clear,170,2013-10-13 22:13:00
5:33 PM,62.6,28.4,27,30.32,10.0,South,9.2,-,N/A,,Scattered Clouds,170,2013-10-13 22:33:00
5:53 PM,60.8,28.4,29,30.32,10.0,SSE,5.8,-,N/A,,Clear,160,2013-10-13 22:53:00
6:13 PM,60.8,28.4,29,30.31,10.0,SSE,5.8,-,N/A,,Clear,150,2013-10-13 23:13:00
6:33 PM,55.4,30.2,38,30.31,10.0,SE,4.6,-,N/A,,Clear,140,2013-10-13 23:33:00
6:53 PM,55.4,30.2,38,30.31,10.0,SE,4.6,-,N/A,,Clear,140,2013-10-13 23:53:00
7:13 PM,53.6,30.2,41,30.31,10.0,SE,5.8,-,N/A,,Clear,140,2013-10-14 00:13:00
7:33 PM,51.8,30.2,44,30.31,10.0,SE,5.8,-,N/A,,Scattered Clouds,140,2013-10-14 00:33:00
7:53 PM,50.0,30.2,47,30.31,10.0,SE,5.8,-,N/A,,Scattered Clouds,130,2013-10-14 00:53:00
8:13 PM,48.2,30.2,50,30.31,10.0,SE,5.8,-,N/A,,Clear,130,2013-10-14 01:13:00
8:33 PM,48.2,32.0,54,30.31,10.0,ESE,4.6,-,N/A,,Clear,120,2013-10-14 01:33:00
8:53 PM,46.4,32.0,57,30.31,10.0,SE,4.6,-,N/A,,Clear,130,2013-10-14 01:53:00
9:13 PM,48.2,30.2,50,30.31,10.0,SE,4.6,-,N/A,,Clear,140,2013-10-14 02:13:00
9:33 PM,46.4,30.2,53,30.31,10.0,ESE,5.8,-,N/A,,Clear,120,2013-10-14 02:33:00
9:53 PM,46.4,30.2,53,30.31,10.0,SE,5.8,-,N/A,,Clear,130,2013-10-14 02:53:00
10:13 PM,44.6,30.2,57,30.32,10.0,ESE,4.6,-,N/A,,Clear,120,2013-10-14 03:13:00
10:33 PM,44.6,32.0,61,30.32,10.0,SE,5.8,-,N/A,,Clear,140,2013-10-14 03:33:00
10:53 PM,44.6,32.0,61,30.32,10.0,SE,5.8,-,N/A,,Clear,140,2013-10-14 03:53:00
11:13 PM,44.6,32.0,61,30.32,10.0,SE,6.9,-,N/A,,Clear,140,2013-10-14 04:13:00
11:33 PM,44.6,32.0,61,30.32,10.0,SE,8.1,-,N/A,,Clear,140,2013-10-14 04:33:00
11:52 PM,46.4,32.0,57,30.32,10.0,SSE,9.2,-,N/A,,Clear,150,2013-10-14 04:52:00